GW5747 Weather Reports


time (UTC)temp
C
wind
direction
speed
KPH
gust
KPH
rain 1hr
cm
rain 24hr
cm
rain mn
cm
humidity
%
barometer
mb
20260510083519 10 140 0.0 0.0 0.00 0.00 0.00 99 1001.0
20260510083015 10 140 0.0 0.0 0.00 0.00 0.00 99 1000.8
20260510082512 10 140 0.0 0.0 0.00 0.00 0.00 99 1001.0
20260510082012 10 140 0.0 0.0 0.00 0.00 0.00 99 1000.7
20260510081508 10 140 0.0 0.0 0.00 0.00 0.00 99 1001.0
20260510081004 10 140 0.0 0.0 0.00 0.00 0.00 99 1000.9
20260510080502 10 135 0.0 0.0 0.00 0.00 0.00 99 1000.8
20260510080000 10 135 0.0 0.0 0.00 0.00 0.00 99 1000.6
20260510075457 10 135 0.0 0.0 0.00 0.00 0.00 98 1000.4
20260510074954 10 138 0.0 0.0 0.00 0.00 0.00 98 1000.4
20260510074451 10 137 0.0 0.0 0.00 0.00 0.00 98 1000.5
20260510073947 10 139 0.0 0.0 0.00 0.00 0.00 98 1000.2
20260510073443 10 139 0.0 0.0 0.00 0.00 0.00 98 1000.3
20260510072939 10 139 0.0 0.0 0.00 0.00 0.00 98 1000.2
20260510072437 10 139 0.0 0.0 0.00 0.00 0.00 98 1000.0
20260510071932 10 139 0.0 0.0 0.00 0.00 0.00 98 1000.1
20260510071429 10 139 0.0 0.0 0.00 0.00 0.00 98 1000.0
20260510070927 10 141 0.0 0.0 0.00 0.00 0.00 98 1000.0
20260510070424 11 141 0.0 0.0 0.00 0.00 0.00 98 1000.0
20260510065919 11 141 0.0 0.0 0.00 0.00 0.00 98 1000.1
20260510065416 11 141 0.0 0.0 0.00 0.00 0.00 98 1000.1
20260510064912 11 141 0.0 0.0 0.00 0.00 0.00 98 999.9
20260510064410 11 140 0.0 0.0 0.00 0.00 0.00 98 999.9
20260510063906 11 140 0.0 0.0 0.00 0.00 0.00 98 999.9
20260510063403 11 141 0.0 0.0 0.00 0.00 0.00 98 999.8
20260510062901 11 140 0.0 0.0 0.00 0.00 0.00 98 999.7
20260510062355 11 142 0.0 0.0 0.00 0.00 0.00 98 999.9
20260510061851 11 133 0.0 0.0 0.00 0.00 0.00 97 999.7
20260510061348 11 135 0.0 0.0 0.00 0.00 0.00 97 999.7
20260510060843 11 140 0.0 0.0 0.00 0.00 0.00 97 999.7
20260510060341 11 141 0.0 0.0 0.00 0.00 0.00 97 999.7
20260510055837 11 141 0.0 0.0 0.00 0.00 0.00 97 999.8
20260510055336 11 141 0.0 0.0 0.00 0.00 0.00 97 999.9
20260510054831 11 141 0.0 0.0 0.00 0.00 0.00 97 999.7
20260510054327 11 141 0.0 0.0 0.00 0.00 0.00 97 999.8
20260510053822 12 141 0.0 0.0 0.00 0.00 0.00 97 1000.0
20260510053317 12 141 0.0 0.0 0.00 0.00 0.00 96 999.8
20260510052814 12 141 0.0 0.0 0.00 0.00 0.00 96 1000.1
20260510052310 12 141 0.0 0.0 0.00 0.00 0.00 96 1000.1
20260510051806 12 141 0.0 0.0 0.00 0.00 0.00 96 1000.0
20260510051302 12 141 0.0 0.0 0.00 0.00 0.00 96 999.8
20260510050759 12 141 0.0 0.0 0.00 0.00 0.00 96 999.9
20260510050256 12 141 0.0 0.0 0.00 0.00 0.00 96 1000.0
20260510045753 12 141 0.0 0.0 0.00 0.00 0.00 95 999.8
20260510045249 12 137 0.0 0.0 0.00 0.00 0.00 95 999.8
20260510044747 12 137 0.0 0.0 0.00 0.00 0.00 95 999.7
20260510044244 12 137 0.0 0.0 0.00 0.00 0.00 95 999.9
20260510043740 12 137 0.0 0.0 0.00 0.00 0.00 94 999.8
20260510043237 13 142 0.0 0.0 0.00 0.00 0.00 94 1000.0
20260510042734 13 142 0.0 0.0 0.00 0.00 0.00 94 999.9
20260510042229 13 143 0.0 0.0 0.00 0.00 0.00 94 999.9
20260510041726 13 144 0.0 0.0 0.00 0.00 0.00 93 1000.0
20260510041224 13 144 0.0 0.0 0.00 0.00 0.00 93 999.8
20260510040720 13 144 0.0 0.0 0.00 0.00 0.00 93 999.8
20260510040217 13 144 0.0 0.0 0.00 0.00 0.00 92 999.8
20260510035713 13 144 0.0 0.0 0.00 0.00 0.00 92 999.9
20260510035209 13 144 0.0 0.0 0.00 0.00 0.00 92 999.6
20260510034705 13 144 0.0 0.0 0.00 0.00 0.00 91 999.7
20260510034202 14 144 0.0 0.0 0.00 0.00 0.00 91 999.7
20260510033659 14 144 0.0 0.0 0.00 0.00 0.00 90 999.7
20260510033157 14 144 0.0 0.0 0.00 0.00 0.00 90 999.7
20260510032652 14 144 0.0 0.0 0.00 0.00 0.00 89 999.7
20260510032148 15 144 0.0 0.0 0.00 0.00 0.00 89 999.8
20260510031643 15 144 0.0 0.0 0.00 0.00 0.00 88 999.8
20260510031140 15 144 0.0 0.0 0.00 0.00 0.00 87 999.6
20260510030634 15 145 0.0 0.0 0.00 0.00 0.00 87 999.9
20260510030132 15 145 0.0 0.0 0.00 0.00 0.00 87 999.6
20260510025629 15 145 0.0 0.0 0.00 0.00 0.00 86 999.7
20260510025126 15 145 0.0 0.0 0.00 0.00 0.00 85 999.8
20260510024623 16 145 0.0 0.0 0.00 0.00 0.00 85 999.8
20260510024120 16 143 0.0 0.0 0.00 0.00 0.00 85 999.4
20260510023615 16 148 0.0 0.0 0.00 0.00 0.00 84 999.5
20260510023113 16 144 0.0 0.0 0.00 0.00 0.00 84 999.5
20260510022613 16 150 0.0 0.0 0.00 0.00 0.00 84 999.6
20260510022108 16 150 0.0 0.0 0.00 0.00 0.00 84 999.3
20260510021558 16 139 0.0 0.0 0.00 0.00 0.00 85 999.4
20260510021056 16 139 0.0 0.0 0.00 0.00 0.00 85 999.3
20260510020549 16 139 0.0 0.0 0.00 0.00 0.00 84 999.3
20260510020046 16 138 0.0 0.0 0.00 0.00 0.00 84 999.1
20260510015541 16 140 0.0 0.0 0.00 0.00 0.00 82 999.1
20260510015038 16 146 0.0 0.0 0.00 0.00 0.00 82 999.1
20260510014534 17 145 0.0 0.0 0.00 0.00 0.00 81 999.0
20260510014031 17 148 0.0 0.0 0.00 0.00 0.00 81 999.0
20260510013525 17 133 0.0 1.6 0.00 0.00 0.00 80 999.0
20260510013022 17 145 0.0 0.0 0.00 0.00 0.00 79 998.9
20260510012517 17 149 0.0 0.0 0.00 0.00 0.00 79 998.8
20260510012013 17 145 0.0 0.0 0.00 0.00 0.00 78 998.6
20260510011513 17 145 0.0 1.6 0.00 0.00 0.00 78 998.7
20260510011008 17 140 0.0 0.0 0.00 0.00 0.00 78 998.5
20260510010506 17 144 0.0 0.0 0.00 0.00 0.00 78 998.4
20260510010003 17 144 0.0 0.0 0.00 0.00 0.00 77 998.3
20260510005458 18 144 0.0 0.0 0.00 0.00 0.00 77 998.5
20260510004956 18 142 0.0 0.0 0.00 0.00 0.00 77 998.5
20260510004453 18 145 0.0 0.0 0.00 0.00 0.00 76 998.4
20260510003952 18 143 0.0 0.0 0.00 0.00 0.00 76 998.4
20260510003448 18 148 0.0 0.0 0.00 0.00 0.00 76 998.3
20260510002943 18 135 0.0 0.0 0.00 0.00 0.00 76 998.3
20260510002439 18 89 0.0 1.6 0.00 0.00 0.00 77 998.1
20260510001936 18 134 0.0 0.0 0.00 0.00 0.00 76 998.2
20260510001433 18 141 0.0 0.0 0.00 0.00 0.00 76 998.2
20260510000931 18 141 0.0 0.0 0.00 0.00 0.00 74 998.1
20260510000427 18 141 0.0 0.0 0.00 0.00 0.00 73 998.1
20260509235923 19 141 0.0 0.0 0.00 0.00 0.00 72 997.9
20260509235420 19 141 0.0 0.0 0.00 0.00 0.00 72 998.1
20260509234916 20 140 0.0 0.0 0.00 0.00 0.00 70 998.1
20260509234414 20 143 0.0 0.0 0.00 0.00 0.00 69 998.1
20260509233912 20 143 0.0 0.0 0.00 0.00 0.00 68 997.8
20260509233409 20 143 0.0 0.0 0.00 0.00 0.00 66 998.0
20260509232904 20 143 0.0 0.0 0.00 0.00 0.00 65 997.7
20260509232402 21 145 0.0 0.0 0.00 0.00 0.00 64 997.9
20260509231857 21 143 0.0 0.0 0.00 0.00 0.00 63 997.7
20260509231355 21 142 0.0 0.0 0.00 0.00 0.00 62 997.7
20260509230852 21 142 0.0 0.0 0.00 0.00 0.00 62 997.7
20260509230349 21 143 0.0 0.0 0.00 0.00 0.00 63 997.8
20260509225844 21 138 0.0 0.0 0.00 0.00 0.00 60 998.1
20260509225342 21 138 0.0 0.0 0.00 0.00 0.00 60 997.5
20260509224837 21 147 0.0 0.0 0.00 0.00 0.00 58 997.8
20260509224334 22 148 0.0 0.0 0.00 0.00 0.00 58 997.8
20260509223831 22 133 0.0 0.0 0.00 0.00 0.00 59 997.6
20260509223328 22 148 0.0 0.0 0.00 0.00 0.00 56 997.6
20260509222825 22 141 0.0 0.0 0.00 0.00 0.00 57 997.8
20260509222320 21 149 0.0 0.0 0.00 0.00 0.00 57 997.6
20260509221816 21 125 1.6 1.6 0.00 0.00 0.00 64 997.9
20260509221314 21 148 0.0 0.0 0.00 0.00 0.00 60 997.8
20260509220813 21 136 0.0 0.0 0.00 0.00 0.00 60 997.6
20260509220310 21 142 0.0 0.0 0.00 0.00 0.00 60 997.8
20260509215806 21 146 0.0 0.0 0.00 0.00 0.00 60 997.8
20260509215305 21 137 0.0 0.0 0.00 0.00 0.00 62 997.9
20260509214759 21 138 0.0 0.0 0.00 0.00 0.00 61 997.9
20260509214256 22 144 0.0 0.0 0.00 0.00 0.00 59 997.8
20260509213753 22 144 0.0 0.0 0.00 0.00 0.00 58 997.7
20260509213249 22 113 0.0 0.0 0.00 0.00 0.00 57 997.7
20260509212746 22 132 0.0 0.0 0.00 0.00 0.00 58 998.0
20260509212244 22 137 0.0 0.0 0.00 0.00 0.00 57 997.7
20260509211745 22 155 0.0 0.0 0.00 0.00 0.00 56 997.8
20260509211241 22 146 0.0 0.0 0.00 0.00 0.00 56 997.8
20260509210738 22 148 0.0 0.0 0.00 0.00 0.00 56 997.6
20260509210236 22 146 0.0 0.0 0.00 0.00 0.00 57 997.7
20260509205735 22 158 0.0 0.0 0.00 0.00 0.00 57 997.8
20260509205236 22 154 0.0 0.0 0.00 0.00 0.00 58 997.9
20260509204731 22 179 0.0 1.6 0.00 0.00 0.00 58 997.7
20260509204229 22 152 0.0 1.6 0.00 0.00 0.00 56 997.7
20260509203724 22 177 1.6 3.2 0.00 0.00 0.00 57 997.6
20260509203223 22 130 0.0 0.0 0.00 0.00 0.00 58 997.6
20260509202718 21 154 0.0 0.0 0.00 0.00 0.00 57 997.5
20260509202213 22 166 0.0 1.6 0.00 0.00 0.00 57 997.5
20260509201708 21 186 0.0 0.0 0.00 0.00 0.00 59 997.5
20260509201206 21 145 0.0 0.0 0.00 0.00 0.00 61 997.6
20260509200703 21 152 0.0 0.0 0.00 0.00 0.00 59 997.8
20260509200203 21 150 0.0 0.0 0.00 0.00 0.00 63 998.1
20260509195659 21 161 0.0 1.6 0.00 0.00 0.00 61 997.9
20260509195155 21 135 1.6 1.6 0.00 0.00 0.00 61 998.2
20260509194654 21 166 0.0 1.6 0.00 0.00 0.00 60 998.2
20260509194152 21 155 0.0 0.0 0.00 0.00 0.00 62 998.2
20260509193647 21 246 3.2 3.2 0.00 0.00 0.00 61 998.3
20260509193143 21 151 0.0 0.0 0.00 0.00 0.00 61 998.4
20260509192640 21 137 0.0 0.0 0.00 0.00 0.00 63 998.4
20260509192135 21 147 0.0 1.6 0.00 0.00 0.00 68 998.6
20260509191635 20 134 0.0 0.0 0.00 0.00 0.00 71 998.6
20260509191132 20 139 0.0 0.0 0.00 0.00 0.00 69 998.5
20260509190628 20 143 0.0 0.0 0.00 0.00 0.00 67 998.7
20260509190126 20 128 0.0 0.0 0.00 0.00 0.00 69 998.7
20260509185623 20 152 0.0 0.0 0.00 0.00 0.00 69 998.6
20260509185119 20 139 1.6 1.6 0.00 0.00 0.00 69 998.8
20260509184618 20 153 0.0 0.0 0.00 0.00 0.00 70 998.8
20260509184114 20 92 1.6 1.6 0.00 0.00 0.00 67 998.8
20260509183609 20 134 0.0 0.0 0.00 0.00 0.00 74 999.0
20260509183105 19 141 0.0 0.0 0.00 0.00 0.00 75 998.9
20260509182602 18 140 0.0 0.0 0.00 0.00 0.00 79 999.0
20260509182059 18 141 0.0 0.0 0.00 0.00 0.00 79 999.2
20260509181557 18 141 0.0 0.0 0.00 0.00 0.00 78 999.1
20260509181054 18 148 0.0 0.0 0.00 0.00 0.00 75 999.2
20260509180550 20 135 0.0 0.0 0.00 0.00 0.00 72 999.5
20260509180047 20 139 0.0 0.0 0.00 0.00 0.00 65 999.5
20260509175542 20 129 0.0 0.0 0.00 0.00 0.00 64 999.5
20260509175040 20 147 0.0 0.0 0.00 0.00 0.00 62 999.6
20260509174536 20 135 1.6 1.6 0.00 0.00 0.00 64 999.8
20260509174031 20 148 0.0 0.0 0.00 0.00 0.00 64 999.7
20260509173526 20 168 0.0 1.6 0.00 0.00 0.00 62 999.7
20260509173022 21 146 0.0 0.0 0.00 0.00 0.00 62 999.7
20260509172520 21 139 0.0 0.0 0.00 0.00 0.00 61 999.9
20260509172015 21 133 1.6 1.6 0.00 0.00 0.00 61 999.7
20260509171512 20 143 0.0 0.0 0.00 0.00 0.00 65 999.7
20260509171009 20 143 0.0 0.0 0.00 0.00 0.00 62 1000.1
20260509170504 20 140 0.0 0.0 0.00 0.00 0.00 64 1000.0
20260509165959 20 138 0.0 0.0 0.00 0.00 0.00 65 999.9
20260509165458 20 150 0.0 0.0 0.00 0.00 0.00 65 1000.1
20260509164955 20 143 0.0 0.0 0.00 0.00 0.00 65 1000.0
20260509164450 19 144 0.0 0.0 0.00 0.00 0.00 64 1000.0
20260509163946 20 149 0.0 0.0 0.00 0.00 0.00 63 1000.1
20260509163444 20 138 0.0 0.0 0.00 0.00 0.00 64 1000.0
20260509162943 20 138 0.0 0.0 0.00 0.00 0.00 65 999.9
20260509162442 20 141 0.0 1.6 0.00 0.00 0.00 64 999.9
20260509161938 20 140 0.0 0.0 0.00 0.00 0.00 64 1000.0
20260509161434 20 129 0.0 0.0 0.00 0.00 0.00 64 1000.1
20260509160930 20 146 0.0 0.0 0.00 0.00 0.00 61 1000.2
20260509160426 20 120 0.0 0.0 0.00 0.00 0.00 66 1000.1
20260509155921 20 140 0.0 0.0 0.00 0.00 0.00 61 1000.1
20260509155418 19 135 0.0 0.0 0.00 0.00 0.00 62 1000.3
20260509154914 19 152 0.0 0.0 0.00 0.00 0.00 65 1000.2
20260509154411 19 146 0.0 0.0 0.00 0.00 0.00 64 1000.4
20260509153908 19 170 1.6 1.6 0.00 0.00 0.00 63 1000.5
20260509153405 19 140 0.0 0.0 0.00 0.00 0.00 64 1000.4
20260509152902 18 120 0.0 0.0 0.00 0.00 0.00 64 1000.5
20260509152358 20 163 0.0 0.0 0.00 0.00 0.00 62 1000.2
20260509151855 20 145 0.0 0.0 0.00 0.00 0.00 63 1000.4
20260509151350 18 159 0.0 0.0 0.00 0.00 0.00 67 1000.8
20260509150849 19 159 0.0 0.0 0.00 0.00 0.00 62 1000.6
20260509150347 19 150 0.0 0.0 0.00 0.00 0.00 63 1000.5
20260509145844 19 117 1.6 1.6 0.00 0.00 0.00 61 1000.4
20260509145338 18 151 0.0 0.0 0.00 0.00 0.00 62 1000.7
20260509144835 18 147 0.0 1.6 0.00 0.00 0.00 63 1000.9
20260509144332 17 145 0.0 0.0 0.00 0.00 0.00 65 1000.8
20260509143829 17 165 0.0 1.6 0.00 0.00 0.00 66 1001.0
20260509143327 16 151 0.0 0.0 0.00 0.00 0.00 67 1001.0
20260509142822 16 143 0.0 0.0 0.00 0.00 0.00 70 1001.1
20260509142319 16 147 0.0 0.0 0.00 0.00 0.00 69 1001.2
20260509141814 16 146 0.0 0.0 0.00 0.00 0.00 69 1001.2
20260509141312 16 155 0.0 0.0 0.00 0.00 0.00 69 1001.0
20260509140808 16 148 0.0 0.0 0.00 0.00 0.00 69 1000.9
20260509140305 16 147 0.0 0.0 0.00 0.00 0.00 68 1000.9
20260509135803 16 150 0.0 0.0 0.00 0.00 0.00 68 1001.0
20260509135300 16 144 0.0 0.0 0.00 0.00 0.00 69 1001.1
20260509134757 16 148 0.0 0.0 0.00 0.00 0.00 68 1001.3
20260509134255 16 150 0.0 0.0 0.00 0.00 0.00 69 1001.2
20260509133752 16 152 0.0 0.0 0.00 0.00 0.00 68 1001.1
20260509133248 16 153 0.0 0.0 0.00 0.00 0.00 67 1001.0
20260509132747 16 153 0.0 0.0 0.00 0.00 0.00 67 1001.1
20260509132245 16 160 0.0 0.0 0.00 0.00 0.00 68 1001.1
20260509131741 16 156 0.0 0.0 0.00 0.00 0.00 68 1001.1
20260509131238 16 146 0.0 0.0 0.00 0.00 0.00 69 1001.2
20260509130734 16 178 0.0 0.0 0.00 0.00 0.00 67 1001.1
20260509130230 16 138 0.0 0.0 0.00 0.00 0.00 68 1001.3
20260509125727 16 154 0.0 0.0 0.00 0.00 0.00 65 1001.0
20260509125224 16 153 0.0 0.0 0.00 0.00 0.00 64 1001.3
20260509124720 16 173 0.0 0.0 0.00 0.00 0.00 67 1001.2
20260509124217 16 154 0.0 0.0 0.00 0.00 0.00 66 1000.8
20260509123716 16 157 0.0 0.0 0.00 0.00 0.00 66 1001.0
20260509123213 16 155 0.0 0.0 0.00 0.00 0.00 66 1000.7
20260509122708 15 154 0.0 0.0 0.00 0.00 0.00 65 1000.7
20260509122205 15 141 1.6 1.6 0.00 0.00 0.00 66 1001.0
20260509121702 15 144 0.0 0.0 0.00 0.00 0.00 66 1001.0
20260509121200 15 154 0.0 0.0 0.00 0.00 0.00 65 1000.9
20260509120658 15 177 1.6 1.6 0.00 0.00 0.00 66 1000.8
20260509120155 15 147 0.0 0.0 0.00 0.00 0.00 66 1000.9
20260509115652 15 149 0.0 0.0 0.00 0.00 0.00 67 1001.0
20260509115150 15 150 0.0 0.0 0.00 0.00 0.00 65 1000.9
20260509114648 15 155 0.0 0.0 0.00 0.00 0.00 65 1000.7
20260509114147 15 150 0.0 0.0 0.00 0.00 0.00 65 1000.8
20260509113645 15 140 0.0 0.0 0.00 0.00 0.00 65 1000.9
20260509113141 15 150 0.0 0.0 0.00 0.00 0.00 63 1000.6
20260509112638 15 138 0.0 0.0 0.00 0.00 0.00 64 1000.8
20260509112135 15 147 0.0 0.0 0.00 0.00 0.00 64 1000.7
20260509111632 15 149 0.0 1.6 0.00 0.00 0.00 62 1000.5
20260509111129 14 155 0.0 0.0 0.00 0.00 0.00 61 1000.5
20260509110626 14 158 0.0 0.0 0.00 0.00 0.00 63 1000.6
20260509110124 14 149 0.0 0.0 0.00 0.00 0.00 62 1000.7
20260509105621 14 143 0.0 0.0 0.00 0.00 0.00 65 1000.6
20260509105118 13 147 0.0 0.0 0.00 0.00 0.00 64 1000.6
20260509104615 13 148 0.0 0.0 0.00 0.00 0.00 69 1000.4
20260509104112 13 150 0.0 0.0 0.00 0.00 0.00 66 1000.7
20260509103610 13 144 0.0 0.0 0.00 0.00 0.00 72 1000.3
20260509103108 13 145 0.0 0.0 0.00 0.00 0.00 71 1000.3
20260509102605 13 141 0.0 0.0 0.00 0.00 0.00 69 1000.5
20260509102102 13 141 0.0 0.0 0.00 0.00 0.00 68 1000.3
20260509101558 13 140 0.0 0.0 0.00 0.00 0.00 69 1000.4
20260509101055 13 141 0.0 0.0 0.00 0.00 0.00 69 1000.4
20260509100552 13 141 0.0 0.0 0.00 0.00 0.00 68 1000.3
20260509100050 13 141 0.0 0.0 0.00 0.00 0.00 67 1000.1
20260509095546 13 140 0.0 0.0 0.00 0.00 0.00 67 1000.2
20260509095044 13 143 0.0 0.0 0.00 0.00 0.00 66 1000.3
20260509094540 13 145 0.0 0.0 0.00 0.00 0.00 64 1000.1
20260509094037 13 141 0.0 0.0 0.00 0.00 0.00 64 1000.2
20260509093535 13 143 0.0 0.0 0.00 0.00 0.00 63 1000.1
20260509093033 13 143 0.0 0.0 0.00 0.00 0.00 64 1000.4
20260509092530 13 148 0.0 0.0 0.00 0.00 0.00 64 1000.4
20260509092029 13 143 0.0 0.0 0.00 0.00 0.00 63 1000.4
20260509091526 13 148 0.0 0.0 0.00 0.00 0.00 65 1000.7
20260509091022 13 145 0.0 0.0 0.00 0.00 0.00 67 1000.7
20260509090520 13 141 0.0 0.0 0.00 0.00 0.00 67 1000.5
20260509090018 13 152 0.0 0.0 0.00 0.00 0.00 66 1000.5
20260509085514 13 99 0.0 0.0 0.00 0.00 0.00 63 1000.3
20260509085010 13 148 0.0 0.0 0.00 0.00 0.00 65 1000.4
20260509084508 14 154 0.0 0.0 0.00 0.00 0.00 65 1000.7
20260509084004 13 155 0.0 0.0 0.00 0.00 0.00 61 1000.7